TimeEDT,TemperatureF,Dew PointF,Humidity,Sea Level PressureIn,VisibilityMPH,Wind Direction,Wind SpeedMPH,Gust SpeedMPH,PrecipitationIn,Events,Conditions,WindDirDegrees,DateUTC
12:53 AM,69.1,66.0,90,29.87,10.0,SSW,5.8,-,N/A,,Clear,200,2013-08-31 04:53:00
1:53 AM,69.1,66.0,90,29.87,10.0,SW,4.6,-,N/A,,Partly Cloudy,220,2013-08-31 05:53:00
2:53 AM,72.0,66.9,84,29.84,10.0,South,6.9,-,N/A,,Clear,190,2013-08-31 06:53:00
3:53 AM,68.0,66.0,93,29.85,9.0,Calm,Calm,-,N/A,,Clear,0,2013-08-31 07:53:00
4:53 AM,70.0,66.9,90,29.85,9.0,SSW,6.9,-,N/A,,Clear,210,2013-08-31 08:53:00
5:53 AM,68.0,66.0,93,29.86,7.0,SSW,4.6,-,N/A,,Clear,200,2013-08-31 09:53:00
6:53 AM,69.1,66.9,93,29.87,6.0,SW,4.6,-,N/A,,Clear,230,2013-08-31 10:53:00
7:53 AM,70.0,68.0,93,29.88,5.0,Calm,Calm,-,N/A,,Clear,0,2013-08-31 11:53:00
8:53 AM,73.9,69.1,85,29.88,7.0,SSW,6.9,-,N/A,,Clear,210,2013-08-31 12:53:00
9:53 AM,77.0,70.0,79,29.88,9.0,SSW,10.4,-,N/A,,Clear,200,2013-08-31 13:53:00
10:53 AM,79.0,70.0,74,29.87,10.0,SW,6.9,-,N/A,,Clear,230,2013-08-31 14:53:00
11:53 AM,81.0,70.0,69,29.86,10.0,SW,9.2,-,N/A,,Clear,230,2013-08-31 15:53:00
12:35 PM,80.6,69.8,70,29.90,10.0,SW,9.2,-,N/A,,Mostly Cloudy,220,2013-08-31 16:35:00
12:53 PM,80.1,70.0,71,29.86,10.0,WSW,9.2,-,N/A,,Mostly Cloudy,240,2013-08-31 16:53:00
1:53 PM,80.1,69.1,69,29.86,9.0,SW,8.1,-,N/A,,Partly Cloudy,220,2013-08-31 17:53:00
2:53 PM,82.0,70.0,67,29.84,10.0,SSW,9.2,-,N/A,,Clear,210,2013-08-31 18:53:00
3:24 PM,80.6,69.8,70,29.87,10.0,South,6.9,-,N/A,Thunderstorm,Clear,190,2013-08-31 19:24:00
3:53 PM,82.0,70.0,67,29.83,10.0,SSW,6.9,-,N/A,Thunderstorm,Clear,200,2013-08-31 19:53:00
4:09 PM,80.6,69.8,70,29.86,10.0,SSW,9.2,-,N/A,,Clear,200,2013-08-31 20:09:00
4:53 PM,80.1,66.9,64,29.82,10.0,South,5.8,-,N/A,,Mostly Cloudy,180,2013-08-31 20:53:00
5:53 PM,80.1,64.9,60,29.81,10.0,South,6.9,-,N/A,,Clear,180,2013-08-31 21:53:00
6:53 PM,78.1,66.9,68,29.81,10.0,SSW,8.1,-,N/A,,Clear,200,2013-08-31 22:53:00
7:53 PM,75.0,66.9,76,29.82,10.0,SSW,6.9,-,N/A,,Clear,200,2013-08-31 23:53:00
8:53 PM,73.0,66.9,81,29.85,10.0,South,5.8,-,N/A,,Clear,190,2013-09-01 00:53:00
9:53 PM,71.1,66.9,87,29.85,7.0,SW,3.5,-,N/A,,Clear,220,2013-09-01 01:53:00
10:53 PM,70.0,66.9,90,29.86,10.0,SSW,5.8,-,N/A,,Clear,200,2013-09-01 02:53:00
11:53 PM,70.0,66.0,87,29.86,10.0,West,3.5,-,N/A,,Clear,280,2013-09-01 03:53:00